Location: Austin
(30.3000°N, 97.7500°W)
Time: 23:12:08
(UTC-05:00)

Cosmos 2360 Rocket - Pass Details

Date: 08 April 2026
Orbit: 832 x 845 km, 71.0° (Epoch: 20 April)

Event Time Altitude Azimuth Distance (km) Brightness Sun altitude
Rises 21:06:06 0° 206° (SSW) 3,362 5.4 -15.8°
Reaches altitude 10° 21:08:33 10° 209° (SSW) 2,433 4.7 -16.3°
Maximum altitude 21:14:05 64° 291° (WNW) 918 2.6 -17.5°
Drops below altitude 10° 21:19:40 10° 13° (NNE) 2,453 4.7 -18.6°
Sets 21:22:09 0° 16° (NNE) 3,392 5.4 -19.1°
